Miscellaneous Local Product
Issued by NWS Hastings, NE

Home | Current Version | Previous Version | Graphics & Text | Print | Product List | Glossary On
Versions: 1 2 3 4 5 6 7 8 9 10 11 12 13 14 15 16 17 18 19 20 21 22 23 24 25 26 27 28 29 30 31 32 33 34 35 36 37 38 39 40 41 42 43 44 45 46 47 48 49 50
000
AXUS43 KGID 060902
MISGRI

GID CWA HOURLY WEATHER ROUNDUP
NATIONAL WEATHER SERVICE HASTINGS NE
400 AM CDT WED MAY 06 2015

NOTE: "FAIR" INDICATES FEW OR NO CLOUDS BELOW 12,000 FEET WITH NO
SIGNIFICANT WEATHER AND/OR OBSTRUCTIONS TO VISIBILITY.

...SOUTH CENTRAL NEBRASKA...

CITY           SKY/WX    TMP DP  RH WIND       PRES   REMARKS
GRAND ISLAND   CLOUDY    61  58  90 SE16G24   29.84F
HASTINGS       CLOUDY    61  58  90 SE15      29.82F
KEARNEY        CLOUDY    61  57  88 SE21G26   29.80F
ORD            LGT RAIN  60  57  89 SE14      29.80F
YORK           CLOUDY    63  61  94 SE15      29.86F
AURORA         CLOUDY    62  62 100 SE13      29.84F
LEXINGTON      CLOUDY    60  58  94 SE14G21   29.77F
HOLDREGE       CLOUDY    59  57  94 SE21G26   29.79F
HEBRON         CLOUDY    64  58  80 SE17      29.84F

...NEBRASKA PANHANDLE...

CITY           SKY/WX    TMP DP  RH WIND       PRES   REMARKS
CHADRON        LGT RAIN  53  51  93 E3        29.73F FOG
ALLIANCE       CLOUDY    53  52  96 SE12      29.71F
SCOTTSBLUFF    LGT RAIN  53  53 100 E7        29.71F FOG
SIDNEY         CLOUDY    53  51  93 SE13G22   29.69F

...WESTERN AND NORTH CENTRAL NEBRASKA...

CITY           SKY/WX    TMP DP  RH WIND       PRES   REMARKS
VALENTINE      LGT RAIN  57  55  93 SE16      29.77F
AINSWORTH      CLOUDY    57  57  97 SE14      29.80S
ONEILL         CLOUDY    62  58  88 SE14      29.84F
BROKEN BOW     CLOUDY    60  58  92 S16G25    29.78F
IMPERIAL       CLOUDY    54  51  90 S16G25    29.71F
NORTH PLATTE   CLOUDY    59  56  89 SE12G21   29.75F
MCCOOK         CLOUDY    60  57  89 S13G20    29.74R

...EASTERN NEBRASKA...

CITY           SKY/WX    TMP DP  RH WIND       PRES   REMARKS
NORFOLK        CLOUDY    62  60  93 SE10      29.87F
SO SIOUX CITY  CLOUDY    64  57  78 SE10      29.91F
TEKAMAH        CLOUDY    65  61  87 SE16      29.91F
COLUMBUS       CLOUDY    63  55  77 SE10G16   29.89F
ALBION         HVY RAIN  61  59  94 SE13      29.85F
OMAHA EPPLEY   CLOUDY    64  61  90 SE12      29.91F
MILLARD        CLOUDY    65  61  87 SE7       29.91F
LINCOLN        MOCLDY    64  60  87 SE9       29.88F
NEBRASKA CITY  CLOUDY    63  62  97 SE9       29.91F
BEATRICE       LGT RAIN  63  60  91 SE8       29.88F
FALLS CITY     CLOUDY    62  60  93 E9        29.90F

...NORTHERN KANSAS...

CITY           SKY/WX    TMP DP  RH WIND       PRES   REMARKS
GOODLAND       CLOUDY    52  51  97 S18       29.73F
HILL CITY      CLOUDY    61  59  93 SE14      29.76F
NORTON         CLOUDY    59  55  88 SE16      29.75S
PHILLIPSBURG   CLOUDY    63  63 100 E12       29.78S
SMITH CENTER   CLOUDY    61  57  88 SE16G23   29.79F
HAYS           CLOUDY    61  54  77 SE14      29.76F
RUSSELL        LGT RAIN  62  60  93 SE16      29.76F
CONCORDIA      LGT RAIN  61  58  90 SE17G26   29.81F
SALINA         LGT RAIN  62  60  93 SE12      29.81F
TOPEKA         LGT RAIN  64  61  90 SE8       29.90F



USA.gov is the U.S. government's official web portal to all federal, state and local government web resources and services.